Location: *
(46.1866°S, 178.5290°W)
Time: 18:39:42
(UTC+00:00)

Cosmos 405 Rocket - Pass Details

Date: 19 May 2021
Orbit: 488 x 553 km, 81.3° (Epoch: 17 June)

Event Time Altitude Azimuth Distance (km) Brightness Sun altitude
Rises 05:04:20 0° 360° (N) 2,588 6.6 -6.5°
Reaches altitude 10° 05:06:26 10° 3° (N) 1,722 5.6 -6.9°
Maximum altitude 05:10:10 60° 83° (E) 600 2.7 -7.5°
Drops below altitude 10° 05:14:02 10° 162° (SSE) 1,785 5.1 -8.1°
Sets 05:16:14 0° 165° (SSE) 2,695 6.0 -8.5°
